NEOSSAT

Last updated on Fri Sep 11 2026 00:03:31 GMT+0000 (Coordinated Universal Time)

1 39089U 13009D 26253.57469281 .00000104 00000+0 50659-4 0 9995 2 39089 98.4224 71.6052 0010919 358.4387 1.6763 14.35852024708999
UTC large
Height (km)
Speed (km/s)
/
Latitude / Longitude
Inclination (degrees)
Orbital Period (minutes)
Azimuth
Elevation
Range (km)
Doppler Factor

Next 0 passes for location: London (51.5072 / 0.1276)

No passes found over London.
NEOSSAT